Location: ???? ????
(31.2831°N, 45.5190°E)
Time: 09:43:05
(UTC+00:00)

X-37B - Pass Details

Date: 04 October 2021
Orbit: 385 x 389 km, 45.0° (Epoch: 13 October)

Event Time Altitude Azimuth Distance (km) Brightness Sun altitude
Exits shadow 01:29:46 21° 347° (NNW) 931 2.4 -18.7°
Maximum altitude 01:31:04 29° 29° (NNE) 748 2.3 -18.4°
Drops below altitude 10° 01:33:53 10° 91° (E) 1,407 4.7 -17.8°
Sets 01:36:07 0° 104° (ESE) 2,259 5.8 -17.3°
